Flag for U.S.A. Weather past 2 weeks in Lakewood, Colorado, U.S.A.

Now
67 °F

Passing clouds.


Feels Like: 67 °F
Forecast: 62 / 86 °F
Wind: 12 mph from Southwest

Location: Centennial Airport

Current Time: Jul 26, 2014 at 1:12:58 AM

Latest Report: Jul 25, 2014 at 11:53 PM


Visibility: 10 mi

Pressure: 29.90 "Hg

Humidity: 59%

Dew point: 52 °F

Location of LakewoodLocation

Historic Weather in Lakewood — Graph

°F

Lakewood temperature yesterday

Maximum temperature yesterday: 89 °F (at 11:53 AM)
Minimum temperature yesterday: 66 °F (at 2:53 AM)
Average temperature yesterday: 76 °F

Past Weeks' High & Low Weather Summary

 TemperatureHumidityPressure
High92 °F (Jul 21, 2:53 PM)96% (Jul 17, 2:53 AM)30.37 "Hg (Jul 17, 2:53 AM)
Low55 °F (Jul 17, 2:53 AM)12% (Jul 19, 1:53 PM)29.78 "Hg (Jul 20, 12:53 AM)
Average72 °F50%29.99 "Hg
* Reported Jul 10 11:53 PM — Jul 25 11:53 PM, Lakewood, Weather by CustomWeather, © 2014

Note: Actual official high and low records may vary slightly from our data, if they occured in-between our weather recording intervals... More about our weather records

Advertising

Lakewood weather history for previous 24 hours

 ConditionsComfort  
Time TempWeatherWind HumidityBarometerVisibility
11:53 PM
Jul 25
67 °FPassing clouds.12 mph59%29.90 "Hg10 mi
10:53 PM67 °FPassing clouds.14 mph66%29.91 "Hg10 mi
9:53 PM66 °FPassing clouds.13 mph73%29.92 "Hg10 mi
8:53 PM66 °FLight rain. Broken clouds.3 mph81%29.96 "Hg9 mi
7:53 PM69 °FLight rain. Broken clouds.5 mph73%29.97 "Hg10 mi
6:53 PM77 °FThunderstorms. Partly sunny.No wind40%29.93 "Hg10 mi
5:53 PM78 °FBroken clouds.13 mph36%29.90 "Hg10 mi
4:53 PM76 °FBroken clouds.16 mph52%29.93 "Hg10 mi
3:53 PM78 °FLight rain. Mostly cloudy.16 mph37%29.94 "Hg10 mi
2:57 PM80 °FThunderstorms. Partly sunny.18 mph32%30.13 "Hg10 mi
1:53 PM89 °FBroken clouds.10 mph20%29.84 "Hg10 mi
12:53 PM89 °FBroken clouds.8 mph19%29.85 "Hg10 mi
11:53 AM89 °FBroken clouds.12 mph19%29.88 "Hg10 mi
10:53 AM87 °FScattered clouds.9 mph21%29.89 "Hg10 mi
9:53 AM85 °FScattered clouds.7 mph25%29.90 "Hg10 mi
8:53 AM81 °FScattered clouds.6 mph28%29.91 "Hg10 mi
7:53 AM76 °FScattered clouds.6 mph36%29.91 "Hg10 mi
6:53 AM70 °FBroken clouds.6 mph44%29.88 "Hg10 mi
5:53 AM71 °FPassing clouds.5 mph39%29.85 "Hg10 mi
4:53 AM72 °FPartly cloudy.7 mph40%29.83 "Hg10 mi
3:53 AM68 °FPartly cloudy.6 mph51%29.83 "Hg10 mi
2:53 AM66 °FPartly cloudy.5 mph56%29.84 "Hg10 mi
1:53 AM72 °FPartly cloudy.9 mph44%29.83 "Hg10 mi
Weather by CustomWeather, © 2014

See weather overviewHow to use our weather pages